Find NNS 30480-37

NORAD ID: 12458 Int'l Des: 1981-044 Owner: NAVAIR Country: US operational
LEOCIRCULARPOLARONEWEB_TYPE

リアルタイム位置

3D地球を読み込み中...

NNS 30480-37について

説明を読み込み中...

次回通過

Passes for default location (London). Set your location on the main map for personalized predictions.

高度履歴

Loading altitude history...

軌道要素

1 12458U 81044A 26118.96974171 .00000073 00000-0 15041-3 0 9993
2 12458 89.8446 89.3576 0016302 86.0932 334.6184 13.23293508170013
Epoch: Apr 28, 2026 • Age: 12 hours

現在のステータス

高度 1210.2 km
速度 7.24 km/s
衛星直下点 -69.58°S, 114.35°W
打ち上げ日 May 15, 1981
運用期間 44.9 years
タイプ other

技術仕様

分類 Payload
質量 165.00 kg
乾燥質量 138.00 kg
総質量 165.00 kg
長さ 1.20 m
直径 0.50 m
スパン 79.00 m
形状 Cyl + 4 Pan + Ant
製造者 RCA
バスタイプ Nova
フェーズステータス In Orbit
所有者/国 NAVAIR/US

Most Searched